Weather Roundup
Issued by NWS

Home | Current Version | Previous Version | Text Only | Print | Product List | Glossary On
Versions: 1 2 3 4 5 6 7 8 9 10 11 12 13 14 15 16 17 18 19 20 21 22 23 24 25 26 27 28 29 30 31 32 33 34 35 36 37 38 39 40 41 42 43 44 45 46 47 48 49 50
225
NZUS93 KARX 240459
HRRWXR

CURRENT HOURLY OBSERVATIONS ACROSS
MUCH OF THE UPPER MISSISSIPPI VALLEY
NATIONAL WEATHER SERVICE LA CROSSE WI
1200 AM CDT SAT JUN 24 2017


...SOUTHEAST MINNESOTA...


CITY           SKY/WX    TMP DP  RH WIND       PRES   REMARKS
ROCHESTER      CLOUDY    58  52  80 W10       29.96R
ROCHESTER/MAYO CLOUDY    61  50  69 W15       29.95R
WINONA         CLOUDY    61  54  77 W5        29.92R
AUSTIN         PTCLDY    59  50  72 W10       29.98R
ALBERT LEA     PTCLDY    59  48  67 W6        30.00R
DODGE CENTER   MOCLDY    59  52  77 W12G17    29.97R
PRESTON        PTCLDY    58  51  78 W13       29.96R
OWATONNA       MOCLDY    59  52  77 W10       29.98R
FARIBAULT      PTCLDY    59  52  77 W9        29.97R
$$

...ELSEWHERE IN MINNESOTA...


CITY           SKY/WX    TMP DP  RH WIND       PRES   REMARKS
MINNEAPOLIS    MOCLDY    62  48  60 NW8       29.94R
INTNL FALLS    CLOUDY    53  50  89 W10       29.86S
DULUTH         MOCLDY    53  50  89 NW9       29.86R
RED WING       PTCLDY    63  46  55 NW7       29.92R
REDWOOD FALLS  PTCLDY    55  44  66 W9        30.02R
MANKATO        MOCLDY    58  49  72 W8        30.00R
WORTHINGTON    CLEAR     53  43  68 W7        30.07R
FAIRMONT       PTCLDY    57  49  74 W9        30.03R
$$

...SOUTHWEST WISCONSIN...


CITY           SKY/WX    TMP DP  RH WIND       PRES   REMARKS
LA CROSSE      CLOUDY    68  54  60 W14       29.89R
PRAIRIE DU CHI CLEAR     63  53  70 W12       29.91R
BOSCOBEL       CLEAR     65  55  70 VRB6      29.90R
LONE ROCK      NOT AVBL
PLATTEVILLE    CLEAR     62  57  85 W7        29.91R
FORT MC COY    CLEAR     60  53  78 W5        29.89R
MAUSTON-NEW LI CLEAR     62  53  72 W7        29.85R
VIROQUA        FAIR      61  55  82 W8        29.90R
WIS DELLS      CLEAR     59  53  78 W5        29.86R
$$

...ELSEWHERE IN WISCONSIN...


CITY           SKY/WX    TMP DP  RH WIND       PRES   REMARKS
MILWAUKEE      CLEAR     68  53  58 W8        29.81S
MADISON        CLEAR     63  54  72 CALM      29.85R
GREEN BAY      CLEAR     61  55  81 W7        29.78R
EAU CLAIRE     NOT AVBL
BLACK RVR FLS  CLOUDY    59  51  75 W5        29.87R
MEDFORD        CLOUDY    57  51  81 W6        29.84S
WAUSAU         CLOUDY    59  53  80 W12       29.81R
WIS RAPIDS     CLOUDY    61  52  72 NW8       29.85R
MARSHFIELD     PTCLDY    58  52  80 NW9       29.84R
RICE LAKE      CLOUDY    60  51  72 W10G20    29.90R
$$

...NORTHEAST IOWA...


CITY           SKY/WX    TMP DP  RH WIND       PRES   REMARKS
WATERLOO       PTCLDY    62  52  69 W9        29.98R
DUBUQUE        CLEAR     60  54  80 W12       29.94R
DECORAH        CLEAR     59  54  82 VRB5      29.94R
MASON CITY     MOCLDY    58  50  75 W12       30.02R
CHARLES CITY   CLEAR     59  55  88 W9        29.99S
OELWEIN        CLEAR     61  55  82 W13       29.98R
$$

...ELSEWHERE IN IOWA...


CITY           SKY/WX    TMP DP  RH WIND       PRES   REMARKS
DES MOINES     PTCLDY    65  51  60 NW7       30.04R
IOWA CITY      PTCLDY    63  55  75 W7        29.99R
FORT DODGE     MOCLDY    57  48  72 CALM      30.05S
MARSHALLTOWN   CLEAR     60  53  77 NW9       30.00R
CEDAR RAPIDS   CLEAR     59  57  93 W9        29.96R
$$

...NORTHERN ILLINOIS...


CITY           SKY/WX    TMP DP  RH WIND       PRES   REMARKS
CHICAGO-OHARE  CLEAR     68  54  60 NW8       29.85R
CHICAGO-MIDWAY PTCLDY    69  55  60 NW12      29.85R
MOLINE         CLEAR     67  54  63 W13       29.95R
ROCKFORD       CLEAR     63  56  78 W9        29.88S
PEORIA         CLEAR     65  55  70 W5        29.94R
$$

NOTE: "FAIR" INDICATES FEW OR NO CLOUDS BELOW 12,000 FEET WITH NO
SIGNIFICANT WEATHER AND/OR OBSTRUCTIONS TO VISIBILITY. WIND
SPEEDS ARE IN MILES-PER-HOUR.




USA.gov is the U.S. government's official web portal to all federal, state and local government web resources and services.